Budapest Ferihegy, Hungary

5:29 PM CEST on April 25, 2017 (GMT +0200)
Ferihegy

Weather History for LHBP - November, 2013

Change the Weather History Date:

Tuesday, November 12, 2013

  Actual Average Record
Temperature  
Mean Temperature 50 °F -  
Max Temperature 55 °F 42 °F 66 °F (2015)
Min Temperature 44 °F 29 °F 19 °F (2011)
Degree Days  
Heating Degree Days 16    
Moisture  
Dew Point 42 °F    
Average Humidity 75    
Maximum Humidity 100    
Minimum Humidity 58    
Precipitation  
Precipitation 0.00 in - - ()
Sea Level Pressure  
Sea Level Pressure 30.29 in    
Wind  
Wind Speed 6 mph ()    
Max Wind Speed 12 mph    
Max Gust Speed -    
Visibility 6.2 miles    
Events      
Averages and records for this station are not official NWS values.
T = Trace of Precipitation, MM = Missing Value Source: Averaged Metar Reports

Daily Weather History Graph

Daily Weather History Graph

Search for Another Location

Airport or City:

Trip Planner

Search our weather history database for the weather conditions in past years. The results will help you decide how hot, cold, wet, or windy it might be!

Date:

Astronomy

Nov. 12, 2013 Rise Set
Actual Time 6:43 AM CET 4:10 PM CET
Civil Twilight 6:09 AM CET 4:43 PM CET
Nautical Twilight 5:32 AM CET 5:20 PM CET
Astronomical Twilight 4:56 AM CET 5:56 PM CET
Moon 1:34 PM CET (11/12) 12:51 AM CET (11/12)
Length of Visible Light 10h 33m
Length of Day
9h 27m
Waxing Gibbous, 74% of the Moon is Illuminated
Nov 12
Waxing Gibbous
Nov 17
Full
Nov 25
Last Quarter
Dec 3
New
Dec 9
First Quarter

Hourly Weather History & Observations

Time (CET) Temp. Windchill Dew Point Humidity Pressure Visibility Wind Dir Wind Speed Gust Speed Precip Events Conditions
12:00 AM 50.0 °F - 39.2 °F 66% 30.27 in - NNW 11.5 mph - N/A   Clear
12:30 AM 48.2 °F - 39.2 °F 71% 30.27 in - NNW 10.4 mph - N/A   Clear
1:00 AM 48.2 °F - 39.2 °F 71% 30.27 in - NW 6.9 mph - N/A   Clear
1:30 AM 48.2 °F - 41.0 °F 76% 30.27 in - NNW 6.9 mph - N/A   Clear
2:00 AM 48.2 °F - 39.2 °F 71% 30.27 in - NNW 6.9 mph - N/A   Clear
2:30 AM 48.2 °F - 39.2 °F 71% 30.27 in - NNW 8.1 mph - N/A   Clear
3:00 AM 48.2 °F - 39.2 °F 71% 30.27 in - NNW 9.2 mph - N/A   Clear
3:30 AM 48.2 °F - 39.2 °F 71% 30.30 in - NNW 6.9 mph - N/A   Clear
4:00 AM 48.2 °F - 41.0 °F 76% 30.30 in - NW 10.4 mph - N/A   Clear
4:30 AM 48.2 °F - 39.2 °F 71% 30.30 in - NNW 8.1 mph - N/A   Clear
5:00 AM 48.2 °F - 39.2 °F 71% 30.30 in - North 4.6 mph - N/A   Clear
5:30 AM 48.2 °F - 39.2 °F 71% 30.30 in - North 8.1 mph - N/A   Clear
6:00 AM 46.4 °F - 39.2 °F 76% 30.30 in - Variable 2.3 mph - N/A   Clear
6:30 AM 46.4 °F - 37.4 °F 71% 30.30 in 6.2 mi Variable 2.3 mph - N/A   Partly Cloudy
7:00 AM 44.6 °F 42.2 °F 39.2 °F 81% 30.30 in - West 4.6 mph - N/A   Clear
7:30 AM 44.6 °F 41.4 °F 39.2 °F 81% 30.30 in - NW 5.8 mph - N/A   Clear
8:00 AM 46.4 °F 45.2 °F 39.2 °F 76% 30.33 in - Variable 3.5 mph - N/A   Clear
8:30 AM 48.2 °F - 39.2 °F 71% 30.33 in - Variable 3.5 mph - N/A   Clear
9:00 AM 50.0 °F - 39.2 °F 66% 30.33 in - NNW 6.9 mph - N/A   Clear
9:30 AM 50.0 °F - 39.2 °F 66% 30.33 in - NNW 4.6 mph - N/A   Clear
10:00 AM 51.8 °F - 39.2 °F 62% 30.33 in - NNW 4.6 mph - N/A   Clear
10:30 AM 53.6 °F - 41.0 °F 62% 30.33 in - NNE 4.6 mph - N/A   Clear
11:00 AM 55.4 °F - 41.0 °F 58% 30.30 in - ENE 9.2 mph - N/A   Clear
11:30 AM 53.6 °F - 41.0 °F 62% 30.30 in - East 9.2 mph - N/A   Clear
12:00 PM 53.6 °F - 41.0 °F 62% 30.30 in 6.2 mi East 8.1 mph - N/A   Scattered Clouds
12:30 PM 55.4 °F - 42.8 °F 63% 30.30 in 6.2 mi East 9.2 mph - N/A   Mostly Cloudy
1:00 PM 55.4 °F - 42.8 °F 63% 30.30 in 6.2 mi East 8.1 mph - N/A   Mostly Cloudy
1:30 PM 55.4 °F - 44.6 °F 67% 30.30 in 6.2 mi East 6.9 mph - N/A   Mostly Cloudy
2:00 PM 55.4 °F - 44.6 °F 67% 30.30 in 6.2 mi East 6.9 mph - N/A   Mostly Cloudy
2:30 PM 53.6 °F - 44.6 °F 72% 30.30 in 6.2 mi East 5.8 mph - N/A   Mostly Cloudy
3:00 PM 53.6 °F - 44.6 °F 72% 30.30 in 6.2 mi East 6.9 mph - N/A   Mostly Cloudy
3:30 PM 53.6 °F - 44.6 °F 72% 30.27 in 6.2 mi East 5.8 mph - N/A   Mostly Cloudy
4:00 PM 53.6 °F - 44.6 °F 72% 30.27 in 6.2 mi East 5.8 mph - N/A   Mostly Cloudy
4:30 PM 51.8 °F - 44.6 °F 76% 30.27 in 6.2 mi East 4.6 mph - N/A   Mostly Cloudy
5:00 PM 51.8 °F - 46.4 °F 82% 30.30 in 6.2 mi Variable 3.5 mph - N/A   Mostly Cloudy
5:30 PM 51.8 °F - 46.4 °F 82% 30.30 in 6.2 mi Variable 1.2 mph - N/A   Overcast
6:00 PM 51.8 °F - 46.4 °F 82% 30.30 in 6.2 mi Variable 3.5 mph - N/A   Mostly Cloudy
6:30 PM 51.8 °F - 46.4 °F 82% 30.30 in 6.2 mi Variable 1.2 mph - N/A   Mostly Cloudy
7:00 PM 51.8 °F - 46.4 °F 82% 30.27 in 6.2 mi Variable 3.5 mph - N/A   Mostly Cloudy
7:30 PM 51.8 °F - 46.4 °F 82% 30.27 in 6.2 mi Variable 3.5 mph - N/A   Overcast
8:00 PM 50.0 °F - 46.4 °F 87% 30.27 in 6.2 mi Calm Calm - N/A   Scattered Clouds
8:30 PM 48.2 °F - 44.6 °F 87% 30.30 in 6.2 mi Variable 1.2 mph - N/A   Partly Cloudy
9:00 PM 46.4 °F 45.2 °F 46.4 °F 100% 30.27 in 6.2 mi Variable 3.5 mph - N/A   Scattered Clouds
9:30 PM 46.4 °F - 44.6 °F 93% 30.27 in 6.2 mi Variable 2.3 mph - N/A   Mostly Cloudy
10:00 PM 46.4 °F - 44.6 °F 93% 30.27 in 6.2 mi Variable 2.3 mph - N/A   Mostly Cloudy
10:30 PM 48.2 °F - 48.2 °F 100% 30.27 in 6.2 mi Variable 1.2 mph - N/A   Mostly Cloudy
11:00 PM 48.2 °F - 46.4 °F 93% 30.27 in 6.2 mi Calm Calm - N/A   Mostly Cloudy
11:30 PM 50.0 °F - 46.4 °F 87% 30.27 in 6.2 mi Variable 2.3 mph - N/A   Mostly Cloudy